EA3DKP Weather Reports


time (UTC)temp
C
wind
direction
speed
KPH
gust
KPH
rain 1hr
cm
rain 24hr
cm
rain mn
cm
humidity
%
barometer
mb
20260505040045 14 360 0.0 0.0 0.00 0.00 0.00 86 1009.3
20260505034557 14 360 0.0 0.0 0.00 0.00 0.00 86 1009.4
20260505033032 14 360 0.0 0.0 0.00 0.00 0.00 86 1009.4
20260505031530 14 360 0.0 0.0 0.00 0.00 0.00 86 1009.4
20260505030028 15 360 0.0 0.0 0.00 0.00 0.00 85 1009.4
20260505024525 15 360 0.0 0.0 0.00 0.00 0.00 84 1009.3
20260505023024 15 360 0.0 0.0 0.00 0.00 0.00 84 1009.2
20260505021523 15 360 0.0 0.0 0.00 0.00 0.00 82 1009.3
20260505020023 15 360 0.0 0.0 0.00 0.00 0.00 82 1009.2
20260505014522 15 360 0.0 0.0 0.00 0.00 0.00 82 1009.1
20260505013022 16 360 0.0 0.0 0.00 0.00 0.00 82 1009.2
20260505011520 16 360 0.0 0.0 0.00 0.00 0.00 82 1009.2
20260505010015 16 360 0.0 0.0 0.00 0.00 0.00 80 1009.2
20260505004510 15 360 0.0 0.0 0.00 0.00 0.00 76 1009.2
20260505003010 15 360 1.6 0.0 0.00 0.00 0.00 74 1009.3
20260505001510 15 360 1.6 0.0 0.00 0.00 0.00 75 1009.2
20260505000013 15 160 4.8 0.0 0.00 0.00 0.00 75 1009.1
20260504234507 15 360 11.3 0.0 0.00 0.00 0.00 76 1009.3
20260504233005 15 171 12.9 0.0 0.00 0.00 0.00 79 1008.8
20260504231549 16 360 8.0 0.0 0.00 0.00 0.00 78 1008.8
20260504230047 17 360 3.2 0.0 0.00 0.00 0.00 80 1008.4
20260504224545 17 360 0.0 0.0 0.00 0.00 0.00 82 1008.7
20260504223047 17 360 0.0 0.0 0.00 0.00 0.00 82 1008.8
20260504221544 17 360 0.0 0.0 0.00 0.00 0.00 83 1009.0
20260504220043 17 360 1.6 0.0 0.00 0.00 0.00 84 1009.1
20260504214542 18 360 0.0 0.0 0.00 0.00 0.00 85 1009.0
20260504213042 17 360 0.0 0.0 0.00 0.00 0.00 85 1009.3
20260504211528 17 360 0.0 0.0 0.00 0.00 0.00 86 1009.4
20260504210030 17 360 0.0 0.0 0.00 0.00 0.00 86 1009.3
20260504204528 17 360 0.0 0.0 0.00 0.00 0.00 86 1009.3
20260504203028 17 360 0.0 0.0 0.00 0.00 0.00 86 1009.2
20260504201526 17 360 0.0 0.0 0.00 0.00 0.00 86 1009.1
20260504200028 17 360 0.0 0.0 0.00 0.00 0.00 85 1009.0
20260504194527 17 360 0.0 0.0 0.00 0.00 0.00 85 1008.9
20260504193020 17 360 0.0 0.0 0.00 0.00 0.00 85 1008.4
20260504191508 17 360 0.0 0.0 0.00 0.00 0.00 85 1007.9
20260504190006 18 360 1.6 0.0 0.00 0.00 0.00 85 1007.8
20260504184505 18 360 1.6 0.0 0.00 0.00 0.00 84 1007.7
20260504183005 18 360 1.6 0.0 0.00 0.00 0.00 84 1007.7
20260504181503 18 360 3.2 0.0 0.00 0.00 0.00 83 1007.8
20260504180101 18 360 6.4 0.0 0.00 0.00 0.00 82 1007.8
20260504180000 18 360 6.4 0.0 0.00 0.00 0.00 82 1007.9
20260504174559 18 360 3.2 0.0 0.00 0.00 0.00 82 1007.7
20260504173057 18 360 1.6 0.0 0.00 0.00 0.00 82 1007.9
20260504171550 18 360 0.0 0.0 0.00 0.00 0.00 83 1008.0
20260504081519 20 243 3.2 0.0 0.00 0.00 0.00 77 1009.7
20260504044531 16 273 0.0 0.0 0.00 0.00 0.00 86 1009.9
20260504043042 16 273 1.6 0.0 0.00 0.00 0.00 86 1010.0
20260504041534 16 271 1.6 0.0 0.00 0.00 0.00 86 1010.1